Content
SEND FEEDBACK

Daily
Averages
Monthly
Summary
United States of America

DEDHAM, MASSACHUSETTS


Home > North America > United States > Massachusetts
Elevation: 64 feet     Latitude: 42 13N     Longitude: 071 07W

WEATHER
 
SELECT A DAY
Number of Records: 136,936;   Date Range: 10/15/98 - 12/19/14
 
SHARE

PRINT THIS DATA

[ ← Previous Day ]
WEATHER ALMANAC - APRIL 10, 2013
[ Next Day → ]
[ °C ]   °F
Weather ElementAverageHighLow
Temperature48.7 °F64 °F (2:54 pm) (8:00 am)
Dewpoint41 °F46 °F (8:54 pm) (7:00 pm)
Humidity75.8 %93 % (3:54 am)48 % (2:54 pm)
Barometer28.70 in30.01 in (3:54 am) (7:00 pm)
Wind Speed6.6 mph11.5 mph (7:54 pm)
Weather ElementAverage
Wind DirectionENE (75 °)

Weather ElementTotal
Precipitation0.09 in
Heating Degree Days33 (Base 65)
Averaged from 24 records on April 10, 2013
WEATHER CONDITIONS BREAKOUT
WIND DIRECTION BREAKOUT
WEATHER BY HOUR - APRIL 10, 2013
[ °C ]   °F
Local TimeTemperatureDewpointHumidityBarometerVisibilityWind DirectionWind SpeedGust SpeedPrecipitationEventsConditions
1:54 AM46.0 °F39.9 °F79 %29.99 inSouth (170°)6.9 mph
2:54 AM45.0 °F39.9 °F82 %30.00 inCalm
3:54 AM44.1 °F42.1 °F93 %30.01 inNNE (30°)4.6 mph0.04 in
4:54 AM44.1 °F42.1 °F93 %29.94 inESE (120°)8.1 mph0.02 in
5:54 AM43.0 °F41.0 °F93 %29.93 inENE (70°)9.2 mph
6:54 AM44.1 °F42.1 °F93 %29.94 inNE (50°)6.9 mph
7:54 AM45.0 °F42.1 °F90 %29.96 inEast (100°)3.5 mph
8:00 AM0.0 °F0.0 °FNorth
8:54 AM48.0 °F44.1 °F86 %29.97 inCalm
9:54 AM52.0 °F44.1 °F74 %29.97 inVariable3.5 mph
10:54 AM51.1 °F43.0 °F74 %29.98 inNE (40°)10.4 mph
11:54 AM53.1 °F42.1 °F66 %30.00 inNE (40°)9.2 mph
12:54 PM57.0 °F42.1 °F57 %29.99 inVariable4.6 mph
1:54 PM60.1 °F43.0 °F53 %29.98 inCalm
2:54 PM64.0 °F44.1 °F48 %29.96 inVariable4.6 mph
3:54 PM61.0 °F44.1 °F54 %29.92 inENE (70°)10.4 mph
4:54 PM60.1 °F43.0 °F53 %29.91 inEast (100°)8.1 mph
5:54 PM55.9 °F42.1 °F60 %29.93 inENE (70°)10.4 mph
6:54 PM54.0 °F41.0 °F62 %29.91 inSE (130°)10.4 mph
7:54 PM51.1 °F42.1 °F71 %29.89 inSE (130°)11.5 mph
8:54 PM48.9 °F46.0 °F90 %29.94 inSouth (170°)5.8 mph0.03 in
9:54 PM48.0 °F45.0 °F89 %29.91 inSouth (170°)10.4 mph
10:54 PM46.9 °F45.0 °F93 %29.89 inSE (140°)5.8 mph
11:54 PM46.9 °F44.1 °F90 %29.92 inSSW (200°)8.1 mph
Hourly data recorded from KMQE, located miles away from Dedham, Massachusetts







STORIES FROM OUR PARTNERS